Terminal Aerodrome Forecast
Issued by NWS Norman, OK

Home | Current Version | Previous Version | Text Only | Print | Product List | Glossary On
Versions: 1 2 3 4 5 6 7 8 9 10 11 12 13 14 15 16 17 18 19 20 21 22
000
FTUS44 KOUN 031120
TAFOKC
TAF
KOKC 031120Z 0312/0412 16008KT P6SM SCT250
     FM031500 18013G19KT P6SM FEW080 SCT250
     FM040100 15008KT P6SM SCT250=

USA.gov is the U.S. government's official web portal to all federal, state and local government web resources and services.